EHI
0 0 0 0 0 0 0 0 0 0 0 0 0 0 0 0 0 0 0 0 0 0 0 0 0 0 0 0 0 0 0 0 0 0 0 0 0 0 0 0 0 0 0
0 0 0 0 0 0 0 0 0 0 0 0 0 0 0 0 0 0 0 0 0 0 0 0 0 0 0 0 0 0 0 0 0 0 0 0 0 0 0 0 0 0 0
0 0 0 0 0 0 0 0 0 0 0 0 0 0 0 0 0 0 0 0 0 0 0 0 0 0 0 0 0 0 0 0 0 0 0 0 0 0 0 0 0 0 0
0 0 0 0 0 0 0 0 0 0 0 0 0 0 0 0 0 0 0 0 0 0 0 0 0 0 0 0 0 0 0 0 0 0 0 0 0 0 0 0 0 0 0
0 0 0 0 0 0 0 0 0 0 0 0 0 0 0 0 0 0 0 0 0 0 0 0 0 0 0 0 0 0 0 0 0 0 0 0 0 0 0 0 0 0 0
0 0 0 0 0 0 0 0 0 0 0 0 0 0 0 0 0 0 0 0 0 0 0 0 0 0 0 0 0 0 0 0 0 0 0 0 0 0 0 0 0 0 0
0 0 0 0 0 0 0 0 0 0 0 0 0 0 0 0 0 0 0 0 0 0 0 0 0 0 0 0 0 0 0 0 0 0 0 0 0 0 0 0 0 0 0
0 0 0 0 0 0 0 0 0 0 0 0 0 0 0 0 0 0 0 0 0 0 0 0 0 0 0 0 0 0 0 0 0 0 0 0 0 0 0 0 0 0 0
0 0 0 0 0 0 0 0 0 0 0 0 0 0 0 0 0 0 0 0 0 0 0 0 0 0 0 0 0 0 0 0 0 0 0 0 0 0 0 0 0 0 0
0 0 0 0 0 0 0 0 0 0 0 0 0 0 0 0 0 0 0 0 0 0 0 0 0 0 0 0 0 0 0 0 0 0 0 0 0 0 0 0 0 0 0
0 0 0 0 0 0 0 0 0 0 0 0 0 0 0 0 0 0 0 0 0 0 0 0 0 0 0 0 0 0 0 0 0 0 0 0 0 0 0 0 0 0 0
0 0 0 0 0 0 0 0 0 0 0 0 0 0 0 0 0 0 0 0 0 0 0 0 0 0 0 0 0 0 0 0 0 0 0 0 0 0 0 0 0 0 0
0 0 0 0 0 0 0 0 0 0 0 0 0 0 0 0 0 0 0 0 0 0 0 0 0 0 0 0 0 0 0 0 0 0 0 0 0 0 0 0 0 0 0
0 0 0 0 0 0 0 0 0 0 0 0 0 0 0 0 0 0 0 0 0 0 0 0 0 0 0 0 0 0 0 0 0 0 0 0 0 0 0 0 0 0 0
0 0 0 0 0 0 0 0 0 0 0 0 0 0 0 0 0 0 0 0 0 0 0 0 0 0 0 0 0 0 0 0 0 0 0 0 0 0 0 0 0 0 0
0 0 0 0 0 0 0 0 0 0 0 0 0 0 0 0 0 0 0 0 0 0 0 0 0 0 0 0 0 0 0 0 0 0 0 0 0 0 0 0 0 0 0
0 0 0 0 0 0 0 0 0 0 0 0 0 0 0 0 0 0 0 0 0 0 0 0 0 0 0 0 0 0 0 0 0 0 0 0 0 0 0 0 0 0 0
0 0 0 0 0 0 0 0 0 0 0 0 0 0 0 0 0 0 0 0 0 0 0 0 0 0 0 0 0 0 0 0 0 0 0 0 0 0 0 0 0 0 0
0 0 0 0 0 0 0 0 0 0 0 0 0 0 0 0 0 0 0 0 0 0 0 0 0 0 0 0 0 0 0 0 0 0 0 0 0 0 0 0 0 0 0
0 0 0 0 0 0 0 0 0 0 0 0 0 0 0 0 0 0 0 0 0 0 0 0 0 0 0 0 0 0 0 0 0 0 0 0 0 0 0 0 0 0 0
0 0 0 0 0 0 0 0 0 0 0 0 0 0 0 0 0 0 0 0 0 0 0 0 0 0 0 0 0 0 0 0 0 0 0 0 0 0 0 0 0 0 0
0 0 0 0 0 0 0 0 0 0 0 0 0 0 0 0 0 0 0 0 0 0 0 0 0 0 0 0 0 0 0 0 0 0 0 0 0 0 0 0 0 0 0
0 0 0 0 0 0 0 0 0 0 0 0 0 0 0 0 0 0 0 0 0 0 0 0 0 0 0 0 0 0 0 0 0 0 0 0 0 0 0 0 0 0 0
0 0 0 0 0 0 0 0 0 0 0 0 0 0 0 0 0 0 0 0 0 0 0 0 0 0 0 0 0 0 0 0 0 0 0 0 0 0 0 0 0 0 0
0 0 0 0 0 0 0 0 0 0 0 0 0 0 0 0 0 0 0 0 0 0 0 0 0 0 0 0 0 0 0 0 0 0 0 0 0 0 0 0 0 0 0
0 0 0 0 0 0 0 0 0 0 0 0 0 0 0 0 0 0 0 0 0 0 0 0 0 0 0 0 0 0 0 0 0 0 0 0 0 0 0 0 0 0 0
Wind_Speed
6 7 8 8 9 10 9 10 11 12 13 13 14 14 15 15 14 13 13 13 13 12 11 11 11 10 8 7 7 7 7 8 11 12 11 12 14 14 12 12 11 11 10
6 7 7 8 9 9 10 10 11 12 12 13 13 13 13 14 13 13 13 12 12 13 13 13 13 11 13 10 8 9 8 9 10 13 12 12 14 14 13 13 11 10 9
6 7 7 8 9 10 10 10 11 11 12 12 13 13 13 13 13 12 11 11 11 12 12 12 13 14 14 12 11 10 9 9 10 11 12 10 10 10 12 11 11 9 9
5 6 7 8 9 10 10 10 10 11 11 12 13 14 13 12 11 10 9 9 9 10 11 12 13 13 14 15 11 12 11 11 11 10 10 9 9 10 9 7 7 6 6
5 6 7 8 9 9 10 10 10 10 11 12 13 14 14 11 11 9 6 7 8 10 11 12 13 16 19 16 11 12 12 10 10 10 9 9 8 9 8 7 8 8 6
5 5 6 7 8 9 10 10 10 10 11 12 12 14 15 12 19 17 7 7 8 10 11 11 13 14 18 20 17 16 14 12 11 10 9 9 10 10 9 9 8 7 3
5 5 6 7 8 9 10 10 10 10 11 11 12 13 14 16 22 22 14 9 10 11 12 12 11 13 18 13 11 14 14 16 14 11 10 10 11 10 11 10 9 8 7
5 5 6 6 8 10 10 10 10 10 10 11 12 13 14 16 22 23 18 10 10 11 11 12 13 15 15 15 11 11 11 9 10 9 9 9 9 10 10 10 10 10 10
6 6 6 6 8 9 10 10 10 10 10 11 11 13 13 15 20 24 20 9 9 11 11 11 14 14 20 21 13 13 13 9 10 13 13 12 13 13 10 7 7 6 5
6 6 6 7 8 10 11 11 10 10 10 11 12 12 13 14 18 22 22 7 8 9 9 11 15 18 20 21 14 13 14 12 11 11 10 10 8 9 9 5 5 5 5
6 6 7 7 8 9 10 10 10 10 11 11 12 12 13 14 16 19 19 7 7 9 8 9 10 20 20 20 17 13 16 15 11 10 9 7 7 6 5 5 5 5 5
6 7 7 8 7 7 10 10 10 10 10 10 11 12 11 12 13 14 14 11 10 8 8 8 11 19 19 19 16 19 21 16 9 9 8 8 8 7 7 7 6 6 8
6 7 7 7 7 7 8 10 9 8 8 9 9 9 11 11 11 12 10 10 11 7 7 12 14 17 16 13 18 21 16 11 10 10 10 9 8 9 8 7 6 5 7
7 6 6 7 7 7 6 7 7 7 8 9 9 9 10 10 10 8 6 6 8 7 6 9 12 13 12 13 13 12 10 11 11 10 10 9 9 8 8 7 6 5 3
7 6 6 6 6 6 6 6 7 7 8 10 8 9 10 11 14 18 11 9 8 8 8 6 6 7 8 9 9 10 10 10 11 10 10 10 10 9 9 8 6 5 4
7 6 4 4 4 5 6 6 6 7 11 11 10 11 10 14 19 18 16 14 13 13 8 6 7 7 8 8 9 9 10 10 11 11 11 11 10 10 10 9 8 6 5
8 6 4 4 4 4 5 6 7 6 6 7 9 12 14 16 17 17 16 13 12 11 7 6 7 7 7 7 7 8 9 10 10 10 11 11 11 10 10 9 9 8 6
9 7 6 4 4 4 4 5 5 7 7 6 7 10 14 15 14 15 15 11 8 8 7 7 7 7 7 7 7 7 7 8 9 10 10 11 11 10 10 10 9 10 8
9 6 5 4 4 4 4 4 4 5 6 6 6 7 12 13 11 12 12 7 8 8 8 8 7 7 7 6 6 6 6 7 8 9 9 10 10 10 10 10 9 13 10
9 11 8 5 4 4 4 3 4 4 5 5 6 6 8 8 7 8 8 7 7 8 8 8 8 8 7 6 6 5 6 6 7 7 8 9 9 10 10 11 10 9 8
8 9 11 6 5 4 4 3 3 3 4 4 5 6 10 6 6 7 7 7 7 8 9 9 8 8 7 6 5 5 6 5 5 6 7 7 8 9 9 9 9 9 8
8 8 7 6 5 5 4 3 3 3 4 5 4 5 8 5 5 6 6 7 7 7 8 8 8 8 8 7 6 5 5 4 3 4 5 6 7 8 8 9 9 9 9
9 9 8 7 5 6 5 4 4 3 3 4 4 4 4 5 5 6 7 7 7 8 8 8 9 8 8 8 6 5 4 4 2 2 3 4 5 6 7 8 10 10 10
11 10 9 8 7 6 6 5 4 4 3 3 3 4 4 4 5 6 7 7 8 8 8 8 9 12 15 11 7 5 4 3 3 2 1 2 4 5 6 7 8 10 9
11 11 10 8 8 7 6 6 5 4 3 3 3 3 4 4 5 5 6 7 9 9 11 10 8 11 15 16 12 8 5 5 6 4 3 1 2 4 5 6 7 8 9
12 11 10 8 8 7 7 6 6 5 4 3 3 3 3 4 4 5 6 6 8 9 10 9 12 15 16 12 11 12 7 3 8 10 5 3 2 2 3 4 6 7 8
Wind_Direction
314 316 320 323 322 319 318 322 323 323 325 326 327 327 329 331 331 331 334 336 337 337 337 333 327 319 315 306 306 309 307 302 297 299 303 306 306 303 300 291 278 269 265
308 311 317 320 320 319 321 323 324 325 327 327 327 327 327 329 326 325 332 336 337 337 337 336 335 331 329 323 323 323 318 312 304 303 305 307 309 309 303 291 276 262 256
300 306 313 319 321 320 321 323 326 327 327 328 329 327 325 324 321 315 325 331 333 333 333 332 331 329 330 329 329 329 323 316 306 299 303 308 311 318 311 292 277 260 253
293 301 311 320 321 318 318 321 325 326 327 328 325 325 323 321 317 300 307 321 327 331 330 329 328 324 325 325 328 331 327 319 311 303 304 310 315 325 319 311 300 280 254
283 297 311 317 316 313 314 318 322 325 325 324 323 323 323 323 318 300 280 313 326 330 330 328 325 326 325 326 328 331 328 320 315 311 308 313 320 328 330 325 316 304 263
271 285 299 308 308 307 308 315 319 322 323 322 320 318 320 322 324 335 329 323 336 336 332 330 325 327 325 326 324 329 329 321 321 316 311 313 316 320 322 321 322 317 287
258 275 289 299 303 305 307 311 316 317 319 318 315 317 318 320 326 331 335 330 336 338 337 336 332 328 330 319 324 331 324 320 322 320 309 309 312 317 318 317 320 318 305
251 265 278 290 296 302 306 310 313 314 315 311 314 316 318 318 324 326 330 321 330 337 340 337 333 329 327 341 339 331 322 320 322 316 309 310 311 314 313 309 306 301 283
243 256 271 281 288 297 302 307 312 312 309 308 313 317 317 317 320 321 333 323 332 338 343 339 335 336 341 351 347 336 331 335 333 325 323 319 318 317 322 319 314 308 293
236 252 268 278 285 293 300 308 312 311 308 313 316 317 315 310 313 317 327 329 335 339 344 342 340 349 352 355 354 345 340 343 337 330 327 326 325 321 328 321 307 301 300
232 253 266 276 286 295 299 304 307 309 311 313 316 320 317 317 319 320 328 345 346 343 345 344 344 353 357 357 358 354 351 350 338 333 330 333 333 329 327 318 293 277 281
227 252 264 275 284 289 298 303 307 311 312 317 321 324 325 329 332 331 340 353 357 348 347 345 347 354 357 357 359 0 358 355 346 341 341 343 341 337 331 319 296 267 256
223 247 264 275 281 286 296 303 308 314 316 318 321 327 330 333 339 346 348 346 352 353 343 344 347 352 353 353 357 1 359 353 350 347 345 344 339 333 330 327 316 284 255
222 244 261 273 284 292 297 299 307 314 316 318 330 332 332 337 350 0 358 344 342 346 339 336 341 346 352 354 356 358 356 355 354 347 344 343 343 345 350 349 344 336 312
218 237 255 266 279 291 298 303 306 307 315 324 330 331 333 340 352 0 9 0 354 352 339 330 337 343 349 353 355 357 356 355 354 350 351 353 354 356 358 358 356 355 7
210 226 241 262 278 292 303 305 299 305 323 333 336 337 334 343 348 357 6 4 0 358 347 339 341 341 344 346 348 351 354 356 353 352 356 359 359 359 1 1 5 8 11
205 212 231 254 276 295 306 313 318 320 321 333 344 344 344 347 352 354 0 358 356 357 353 346 341 337 335 336 340 345 349 353 352 354 358 0 360 1 4 5 7 9 9
200 209 223 240 261 279 294 302 309 318 321 328 339 345 347 351 355 357 359 355 353 358 351 345 341 336 331 330 333 338 342 348 356 356 360 1 1 3 6 7 9 8 6
193 198 207 224 241 261 276 286 297 305 310 318 326 341 348 350 354 1 2 358 349 347 345 342 339 336 331 327 326 327 332 341 353 354 1 1 1 4 7 6 7 9 12
194 199 202 213 226 243 253 267 288 304 312 317 329 338 339 347 353 356 356 351 346 341 338 336 334 333 331 328 324 321 324 335 349 356 360 1 2 4 6 7 7 8 11
184 191 202 208 216 229 237 249 272 292 305 313 322 328 341 345 344 345 345 344 341 336 332 331 329 329 330 329 323 317 314 322 339 349 355 0 1 5 6 7 8 11 13
178 180 186 196 204 214 222 231 250 272 293 304 316 325 337 342 340 339 338 338 335 329 327 325 324 326 327 327 321 312 307 308 322 338 351 358 1 5 8 11 12 13 18
178 179 183 190 196 207 215 219 229 248 275 298 311 322 333 338 337 336 334 333 331 328 328 327 325 327 330 327 318 300 285 286 290 314 337 356 5 9 12 15 16 18 22
179 181 184 187 191 199 206 208 213 227 253 278 298 316 327 328 326 329 331 330 330 328 329 329 327 329 333 335 327 310 269 243 221 196 231 352 9 12 17 18 21 22 24
179 181 185 187 190 195 199 203 206 213 228 252 280 303 315 318 321 326 329 330 331 329 332 332 332 334 334 333 331 326 307 225 199 175 166 163 53 30 26 25 25 29 30
180 182 184 185 189 192 194 198 200 204 213 227 252 282 300 309 315 320 325 330 331 329 331 331 334 335 333 332 332 337 337 202 186 178 166 161 140 67 41 40 35 36 38